Temperature
19 19 19 18 18 18 17 17 17 17 17 17 17 16 16 16 16 16 16 16 16 16 16 16 15 15 15 15 15 15 15 15 14 14 14 14 14 14 14 14 14 13 13
19 19 19 18 18 18 17 17 17 17 17 17 16 16 16 16 16 16 16 16 16 16 15 15 15 15 15 15 15 15 15 14 14 14 14 13 13 13 13 13 13 13 13
19 19 18 18 18 18 17 17 17 17 17 16 16 16 16 16 16 16 15 15 15 15 15 15 15 15 15 15 14 14 14 14 14 14 13 13 13 13 13 13 12 12 12
19 19 18 18 18 17 17 17 17 16 16 16 16 16 16 16 15 15 15 15 15 15 15 15 15 14 14 14 14 14 14 14 14 13 13 13 13 12 12 12 12 12 12
19 19 18 18 17 17 17 17 16 16 16 16 16 16 15 15 15 15 15 15 15 15 15 14 14 14 14 14 14 14 13 13 13 13 13 12 12 12 12 12 12 12 11
19 19 18 18 17 17 17 17 16 16 16 16 15 15 15 15 15 15 15 14 14 14 14 14 14 14 13 13 13 13 13 13 13 13 12 12 12 12 12 12 12 11 11
19 18 18 17 17 17 17 17 16 16 16 15 15 15 15 15 14 14 14 14 14 14 14 14 14 13 13 13 13 13 13 12 12 12 12 12 12 12 12 12 11 11 11
19 18 18 17 17 17 17 16 16 16 15 15 15 15 15 14 14 14 14 14 14 14 13 13 13 13 13 13 13 12 12 12 12 12 12 12 11 11 11 11 11 11 11
18 18 18 17 17 17 16 16 16 15 15 15 15 15 14 14 14 14 14 14 14 13 13 13 13 13 12 12 12 12 12 12 11 11 11 11 11 11 11 11 10 10 10
18 18 18 17 17 16 16 16 15 15 15 14 14 14 14 14 14 14 14 13 13 13 13 13 12 12 12 12 12 12 12 11 11 11 11 11 11 11 10 10 10 10 10
18 17 17 17 16 16 16 15 15 15 14 14 14 14 14 14 13 13 13 13 13 13 12 12 12 12 12 12 11 11 11 11 11 11 11 11 10 10 10 10 10 10 10
17 17 17 16 16 16 15 15 14 14 14 14 14 14 14 13 13 13 13 13 12 12 12 12 12 11 11 11 11 11 11 11 11 10 10 10 10 10 10 10 10 9 9
17 17 16 16 16 16 15 15 14 14 14 14 13 13 13 13 13 13 13 12 12 12 12 11 11 11 11 11 11 11 11 10 10 10 10 10 10 10 10 9 9 9 9
17 16 16 16 16 15 15 14 14 14 14 13 13 13 13 13 13 13 12 12 12 12 11 11 11 11 11 11 10 10 10 10 10 10 10 10 9 9 9 9 9 9 9
16 16 16 15 15 15 14 14 14 14 14 13 13 13 13 13 13 12 12 12 12 12 11 11 11 11 10 10 10 10 10 10 10 10 9 9 9 9 9 9 9 9 9
16 16 15 15 15 14 14 14 14 14 13 13 13 13 13 13 12 12 12 12 11 11 11 11 11 10 10 10 10 10 10 10 9 9 9 9 9 9 9 8 8 8 8
16 15 15 15 14 14 14 14 14 13 13 13 13 13 12 12 12 12 12 12 11 11 11 11 11 10 10 10 10 10 10 9 9 9 9 9 9 9 8 8 8 8 8
15 15 15 14 14 14 14 13 13 13 13 13 13 13 12 12 12 12 11 11 11 11 11 11 11 10 10 10 10 10 9 9 9 9 9 9 9 8 8 8 8 8 8
14 14 14 14 14 13 13 13 13 13 13 13 13 13 12 12 12 12 11 11 11 11 11 11 10 10 10 10 10 9 9 9 9 9 9 8 8 8 8 8 8 8 7
14 14 14 13 13 13 13 13 13 13 12 13 12 12 12 12 11 11 11 11 11 11 11 10 10 10 10 10 9 9 9 9 9 9 9 8 8 8 8 8 8 7 7
13 13 13 13 13 13 13 13 12 12 12 12 12 12 12 12 11 11 11 11 11 11 11 10 10 10 10 10 9 9 9 9 9 9 8 8 8 8 8 8 7 7 7
13 13 13 12 12 12 12 12 12 12 12 12 12 12 11 11 11 11 11 11 11 11 10 10 10 10 10 10 9 9 9 9 9 9 8 8 8 8 8 7 7 7 7
13 12 12 12 12 12 12 12 12 12 12 12 11 11 11 11 11 11 11 11 10 10 10 10 10 10 10 9 9 9 9 9 8 8 8 8 8 7 7 7 7 7 7
12 12 12 12 12 12 12 11 11 11 11 11 11 11 11 11 10 10 10 10 10 10 10 10 10 10 9 9 9 9 8 8 8 8 8 7 7 7 7 7 7 7 6
12 12 12 11 11 11 11 11 11 11 11 11 11 11 11 11 10 10 10 10 10 10 10 10 9 9 9 9 9 8 8 8 8 8 7 7 7 7 7 7 6 6 6
11 11 11 11 11 11 11 11 11 11 11 11 11 11 11 10 10 10 10 10 10 10 10 9 9 9 9 9 8 8 8 8 8 7 7 7 7 7 6 6 6 6 6
Wind_Speed
4 3 2 2 2 2 2 1 1 1 1 0 0 1 0 0 0 1 1 1 1 0 0 1 0 1 1 1 1 1 2 2 2 1 1 1 1 1 2 3 3 3 3
3 3 3 2 2 2 1 1 1 1 1 1 1 1 0 0 1 1 1 1 1 0 0 0 0 1 1 1 1 1 1 2 2 1 0 1 1 1 2 3 3 4 4
4 4 3 2 2 2 1 1 1 1 1 1 1 1 1 1 1 1 1 1 1 1 1 1 1 1 1 1 1 1 1 2 2 2 1 0 1 2 2 3 3 2 3
4 4 3 2 2 2 1 1 1 1 1 1 1 1 1 1 1 1 1 1 1 1 1 2 1 1 1 1 1 1 2 2 2 2 2 1 1 1 2 2 2 1 1
5 5 4 3 2 2 2 2 2 2 2 1 2 1 1 0 1 1 1 1 1 2 2 2 2 2 2 2 2 2 2 2 2 2 2 1 1 1 1 1 1 1 1
6 5 3 3 3 3 2 2 2 2 2 2 2 1 1 1 1 3 3 2 1 2 1 2 2 3 3 4 4 3 3 3 3 2 2 2 1 1 1 1 1 1 0
5 5 4 4 3 3 3 3 2 2 2 2 2 2 1 1 1 3 4 3 2 2 1 2 2 3 3 3 4 5 4 3 2 3 3 2 2 1 2 2 1 1 1
5 5 4 5 4 4 3 3 2 1 2 1 1 1 1 1 1 3 4 3 3 2 2 2 2 2 2 3 4 4 3 3 2 1 1 1 1 1 2 2 2 2 1
6 5 5 5 5 4 4 3 2 2 1 1 1 1 0 1 0 3 4 3 2 2 1 2 2 1 2 4 4 3 2 2 3 4 3 3 3 4 4 3 3 2 1
7 6 6 5 5 5 4 3 2 2 2 2 1 0 0 1 0 3 4 3 3 2 1 1 1 2 2 4 3 3 2 1 1 2 3 4 3 3 4 2 3 2 1
4 4 4 4 4 4 4 3 3 3 3 2 1 0 0 1 1 2 4 3 3 2 1 0 0 1 3 4 3 2 2 2 1 2 2 2 2 1 1 1 1 2 2
4 4 5 5 5 4 5 4 4 4 3 3 2 1 1 1 2 2 3 4 4 3 2 2 1 2 3 3 2 2 3 3 2 2 2 1 1 1 1 0 1 2 1
4 4 5 5 4 4 5 5 4 4 4 3 3 3 2 2 1 2 2 3 4 3 2 3 3 3 3 2 2 2 3 2 2 2 1 0 1 1 0 0 0 0 1
4 4 4 4 4 3 3 4 4 5 5 4 4 4 3 2 2 2 2 2 3 2 2 2 3 3 2 2 1 1 1 1 2 2 1 0 0 0 0 0 0 0 0
4 4 3 3 4 3 3 3 4 4 5 6 6 5 5 5 5 6 5 3 3 4 3 2 2 2 1 1 1 1 1 1 1 1 1 1 0 0 0 0 0 0 0
4 4 3 3 3 3 3 2 1 3 5 7 7 7 6 6 5 6 7 6 5 6 5 3 3 3 3 3 2 1 1 1 2 1 1 1 1 1 1 0 0 1 1
5 5 4 4 4 4 3 4 3 2 2 4 6 8 7 7 7 8 7 5 5 7 4 4 4 4 4 3 3 3 2 2 2 2 2 2 2 2 1 1 1 1 1
5 5 5 4 4 4 4 4 4 4 3 3 4 6 8 8 7 7 6 5 3 4 4 4 4 4 4 4 3 3 3 2 2 2 2 2 2 2 2 2 2 2 2
5 4 3 3 3 3 4 4 4 5 5 4 2 3 5 5 5 6 7 5 5 5 5 5 5 5 4 4 4 4 4 3 3 3 3 3 2 2 2 3 3 3 2
4 5 4 3 3 3 3 3 3 4 4 5 5 4 3 3 3 4 5 5 5 5 5 5 5 5 5 4 4 4 4 4 4 3 3 3 3 3 3 3 3 3 3
3 4 5 4 4 4 4 4 4 4 4 4 5 4 6 5 5 5 5 5 6 6 5 5 5 5 5 4 4 5 5 4 4 4 4 3 3 3 3 3 3 3 3
3 3 4 4 4 4 4 5 5 4 5 5 4 3 6 4 4 4 5 5 5 5 5 5 5 5 5 5 5 5 5 5 5 4 4 4 4 4 3 3 3 3 3
3 4 4 4 4 5 5 4 4 4 4 4 3 3 3 4 4 4 5 5 4 4 4 5 4 4 4 5 6 6 6 6 5 5 5 4 4 4 4 4 4 4 4
3 4 4 3 3 4 4 4 4 4 4 4 4 4 4 4 5 5 5 4 4 4 4 4 5 5 6 5 5 5 6 6 5 5 6 5 5 4 4 4 4 5 4
3 3 3 4 4 4 4 4 4 4 4 4 4 4 4 4 5 5 5 5 5 4 5 5 5 6 7 7 6 5 6 7 6 5 5 4 5 5 4 4 4 4 4
3 3 3 3 3 3 4 4 4 4 4 4 4 4 4 4 5 5 4 4 4 4 4 5 6 7 7 7 7 7 7 7 7 7 6 5 5 4 4 4 5 4 5
Wind_Direction
181 179 168 166 165 151 158 182 191 188 134 149 156 101 73 329 121 134 135 116 132 52 43 131 199 159 153 154 154 156 166 169 209 273 292 338 11 42 51 75 80 83 79
171 161 160 151 144 151 174 197 172 123 87 122 128 129 172 148 124 142 145 132 146 109 20 80 3 101 99 110 133 139 159 171 173 202 319 15 27 51 61 76 83 86 80
157 153 147 143 144 154 168 145 114 99 77 75 105 134 148 145 132 131 136 133 126 100 73 76 45 82 87 86 109 124 134 127 141 153 155 43 57 74 69 75 75 73 79
146 140 139 147 146 150 138 107 87 92 92 84 80 100 118 124 125 128 121 112 94 82 73 69 56 93 141 141 129 126 121 111 117 129 120 92 77 69 84 92 75 58 58
151 151 160 152 147 141 134 117 100 93 99 102 90 70 53 88 137 138 136 122 106 86 64 51 53 69 84 106 120 130 131 126 122 126 124 110 109 104 111 139 140 100 50
158 167 166 155 154 150 145 121 104 89 83 82 77 75 52 25 85 117 129 125 110 98 74 47 48 51 65 76 86 98 117 138 151 152 156 159 179 181 158 152 147 120 90
166 166 163 161 165 167 157 128 125 116 96 84 70 69 59 16 108 123 121 125 114 102 94 70 61 53 65 79 80 78 70 79 137 168 168 192 192 203 169 156 148 134 157
170 172 172 172 177 170 153 150 148 123 118 108 93 83 44 343 143 141 128 119 104 91 91 99 99 66 70 97 93 79 62 48 59 113 152 188 181 154 156 159 154 126 79
180 185 190 184 177 171 170 173 165 143 137 143 139 143 130 316 155 147 139 126 110 92 81 91 114 109 85 110 109 101 74 35 49 76 98 97 96 102 119 115 113 120 98
192 191 187 181 177 180 181 178 164 157 175 172 159 170 251 299 279 148 146 140 131 119 82 61 80 119 116 129 132 130 119 353 32 53 55 58 70 90 113 137 152 143 136
188 174 166 171 177 179 169 167 162 166 167 176 188 220 254 268 276 167 157 164 165 155 154 154 300 113 116 130 139 152 182 173 124 95 73 63 61 68 81 117 156 166 170
171 172 174 177 185 182 168 173 172 175 185 198 205 238 267 267 245 221 182 185 176 169 189 203 194 153 130 127 141 144 132 124 112 100 89 70 45 5 328 280 178 181 192
164 181 184 185 187 177 178 180 183 190 201 214 215 231 252 264 258 245 203 191 181 176 186 179 166 152 137 118 105 118 124 119 122 121 135 232 286 294 319 317 44 95 48
170 183 182 180 183 181 186 190 195 204 210 216 220 228 235 239 236 229 218 197 182 165 154 137 127 118 113 103 94 99 115 144 167 172 184 241 339 29 47 16 340 12 35
173 182 187 186 182 187 193 209 216 223 216 214 223 220 216 230 234 212 197 197 194 183 157 130 120 124 137 128 124 117 129 145 170 190 173 162 173 168 356 353 64 117 142
176 182 186 189 186 193 197 214 234 226 228 223 221 216 227 222 211 201 200 195 182 166 155 169 179 182 193 198 200 194 190 201 211 204 198 201 210 211 211 194 169 175 200
185 193 194 193 195 202 205 207 227 263 239 226 223 216 214 208 202 199 195 185 180 165 175 192 196 201 206 206 205 205 213 219 209 207 209 212 217 219 211 210 205 216 234
191 195 195 201 204 208 214 217 216 218 237 256 245 228 219 211 204 198 185 157 173 183 200 204 208 206 205 204 205 207 211 206 201 207 211 213 208 210 213 220 223 236 242
190 194 196 203 210 213 215 217 222 222 227 238 243 237 218 211 206 201 179 186 200 210 213 211 210 205 203 205 208 209 207 208 206 205 212 216 214 212 224 232 232 232 236
194 193 192 198 205 210 211 216 227 232 232 231 230 227 191 179 195 197 195 200 205 214 214 213 212 208 204 203 204 206 207 212 212 212 215 216 218 219 228 238 236 234 236
199 198 195 202 210 213 217 226 229 226 230 231 233 220 184 190 200 199 201 204 207 212 214 214 213 210 208 206 205 207 209 215 216 215 217 217 215 221 230 234 233 231 234
198 202 206 208 212 213 222 226 224 222 227 231 239 222 194 198 205 207 211 215 214 212 209 208 214 215 211 209 207 207 211 217 220 217 217 219 219 221 220 224 231 228 229
199 206 209 210 210 213 219 223 221 222 226 228 224 213 198 208 213 215 217 218 213 212 211 206 211 218 217 213 212 210 213 220 220 212 209 214 218 220 219 224 231 231 231
205 207 208 209 206 207 215 220 221 222 224 224 221 219 215 213 217 221 221 221 215 215 214 210 212 217 219 216 214 214 221 227 218 209 205 211 217 221 221 224 230 229 230
206 204 205 207 209 214 221 226 228 229 229 226 221 221 221 219 222 224 223 217 213 215 216 216 218 221 223 221 218 215 215 214 211 205 199 204 212 215 218 223 227 227 228
203 204 205 205 206 211 218 225 230 232 233 233 230 227 225 225 227 226 220 214 216 217 218 220 221 220 221 221 224 222 216 209 205 203 198 203 209 216 216 222 232 231 232
Height
1525 1526 1527 1527 1528 1528 1528 1528 1529 1529 1529 1529 1529 1529 1529 1529 1528 1528 1528 1527 1527 1526 1526 1525 1525 1525 1524 1524 1524 1524 1524 1524 1524 1524 1524 1524 1523 1523 1523 1523 1523 1523 1523
1523 1524 1525 1525 1526 1526 1527 1527 1527 1527 1527 1527 1527 1527 1527 1527 1527 1527 1526 1526 1525 1524 1524 1524 1523 1523 1522 1522 1522 1521 1521 1521 1521 1521 1522 1522 1522 1521 1521 1521 1521 1521 1521
1521 1522 1523 1524 1524 1525 1525 1526 1526 1526 1526 1526 1526 1526 1526 1526 1525 1525 1525 1524 1523 1523 1522 1522 1522 1521 1520 1520 1520 1519 1519 1519 1519 1519 1520 1520 1520 1520 1520 1520 1520 1520 1520
1519 1520 1521 1522 1523 1524 1525 1525 1525 1525 1525 1525 1525 1525 1524 1524 1524 1524 1523 1523 1522 1521 1521 1520 1520 1520 1519 1518 1518 1518 1518 1518 1518 1518 1518 1518 1518 1518 1518 1518 1518 1518 1519
1517 1518 1519 1520 1521 1522 1523 1523 1523 1523 1523 1524 1523 1523 1523 1523 1522 1522 1522 1521 1520 1520 1519 1519 1518 1518 1518 1517 1517 1516 1517 1516 1516 1516 1516 1516 1517 1517 1517 1517 1517 1517 1518
1516 1517 1518 1518 1519 1520 1521 1521 1521 1521 1521 1522 1522 1522 1521 1521 1521 1521 1520 1520 1519 1519 1518 1518 1518 1517 1517 1516 1516 1516 1516 1516 1515 1515 1515 1515 1515 1516 1516 1516 1516 1516 1516
1514 1515 1516 1517 1517 1519 1519 1519 1519 1520 1520 1520 1520 1520 1520 1520 1520 1519 1519 1518 1518 1517 1517 1517 1517 1516 1516 1516 1516 1515 1515 1515 1515 1515 1514 1514 1515 1515 1515 1515 1515 1515 1515
1511 1513 1514 1515 1515 1516 1517 1517 1517 1518 1518 1518 1518 1518 1518 1518 1518 1518 1518 1517 1516 1516 1516 1516 1516 1516 1516 1515 1515 1515 1514 1514 1514 1514 1514 1514 1514 1514 1514 1514 1514 1514 1514
1509 1511 1512 1512 1513 1514 1514 1514 1515 1516 1516 1516 1516 1516 1516 1516 1516 1516 1516 1515 1515 1515 1515 1515 1515 1515 1515 1515 1514 1514 1514 1514 1514 1514 1514 1514 1514 1513 1513 1513 1513 1513 1513
1506 1508 1509 1510 1511 1511 1512 1513 1514 1514 1515 1515 1514 1514 1514 1514 1514 1514 1514 1514 1513 1513 1513 1514 1514 1514 1514 1514 1513 1513 1513 1513 1513 1513 1513 1513 1513 1513 1512 1512 1512 1512 1512
1504 1505 1506 1507 1508 1509 1510 1511 1511 1512 1512 1512 1512 1512 1512 1512 1512 1513 1512 1512 1512 1512 1512 1512 1512 1513 1513 1512 1512 1512 1512 1512 1512 1512 1512 1512 1512 1512 1511 1511 1511 1511 1511
1501 1503 1504 1504 1505 1506 1507 1508 1509 1509 1510 1509 1509 1509 1509 1510 1510 1510 1510 1510 1510 1510 1510 1511 1511 1511 1511 1511 1511 1511 1511 1511 1511 1511 1511 1511 1510 1510 1511 1510 1510 1510 1510
1498 1500 1501 1502 1502 1503 1504 1504 1505 1506 1506 1506 1506 1507 1507 1507 1508 1508 1508 1508 1508 1508 1508 1508 1509 1509 1510 1509 1509 1509 1510 1510 1510 1509 1509 1509 1509 1509 1509 1509 1509 1509 1509
1495 1496 1497 1498 1499 1500 1500 1501 1502 1502 1503 1503 1503 1503 1504 1504 1505 1505 1505 1505 1505 1506 1506 1506 1506 1507 1507 1507 1507 1507 1507 1508 1508 1508 1508 1508 1508 1508 1507 1507 1507 1507 1506
1492 1494 1494 1495 1495 1496 1497 1498 1499 1499 1500 1500 1500 1500 1500 1500 1501 1502 1502 1502 1503 1503 1503 1504 1504 1504 1504 1505 1505 1505 1505 1506 1506 1506 1506 1506 1506 1506 1506 1506 1505 1505 1504
1489 1490 1491 1492 1492 1493 1493 1494 1494 1495 1496 1497 1497 1497 1497 1498 1498 1499 1499 1499 1500 1500 1501 1500 1500 1501 1502 1502 1503 1502 1503 1503 1504 1504 1504 1504 1504 1504 1504 1504 1503 1503 1502
1486 1487 1487 1488 1488 1489 1490 1490 1490 1491 1492 1492 1493 1493 1494 1494 1494 1495 1496 1496 1497 1497 1497 1497 1497 1498 1499 1499 1500 1500 1500 1501 1501 1501 1501 1501 1502 1502 1502 1501 1501 1500 1500
1482 1483 1483 1484 1485 1486 1486 1486 1486 1487 1487 1488 1489 1489 1490 1490 1491 1491 1492 1492 1493 1493 1493 1494 1494 1495 1496 1497 1497 1497 1498 1499 1499 1499 1499 1499 1499 1499 1499 1498 1498 1498 1498
1478 1479 1480 1481 1482 1482 1483 1483 1483 1483 1484 1484 1484 1485 1485 1486 1486 1487 1488 1488 1489 1489 1490 1491 1491 1492 1493 1493 1494 1495 1496 1496 1496 1496 1496 1496 1496 1496 1496 1495 1496 1495 1495
1474 1475 1476 1477 1478 1479 1480 1480 1480 1480 1480 1480 1480 1480 1480 1481 1482 1482 1483 1484 1485 1485 1486 1487 1488 1489 1489 1490 1491 1492 1492 1493 1493 1493 1493 1493 1493 1493 1493 1492 1492 1492 1492
1471 1472 1473 1474 1475 1476 1476 1477 1477 1477 1477 1476 1476 1476 1477 1477 1478 1479 1479 1480 1481 1482 1483 1484 1485 1485 1486 1487 1487 1488 1489 1489 1489 1490 1490 1490 1490 1490 1490 1489 1489 1489 1489
1468 1469 1470 1471 1472 1472 1473 1474 1474 1474 1473 1473 1473 1473 1473 1473 1474 1475 1476 1476 1478 1479 1480 1480 1481 1482 1483 1483 1484 1484 1485 1485 1486 1486 1486 1486 1486 1486 1486 1486 1486 1486 1486
1464 1466 1467 1467 1468 1469 1470 1470 1470 1470 1470 1470 1470 1470 1470 1470 1471 1472 1473 1473 1474 1475 1476 1477 1478 1478 1479 1479 1480 1480 1480 1481 1481 1482 1482 1482 1482 1482 1482 1482 1482 1482 1481
1462 1462 1463 1464 1464 1465 1466 1466 1467 1467 1467 1467 1467 1467 1467 1468 1468 1469 1469 1470 1471 1472 1473 1474 1474 1475 1475 1476 1476 1476 1477 1477 1477 1477 1478 1478 1478 1478 1478 1477 1477 1477 1478
1459 1460 1460 1461 1461 1461 1462 1463 1463 1464 1464 1464 1464 1464 1464 1465 1465 1466 1466 1467 1468 1469 1470 1470 1471 1471 1471 1471 1472 1472 1472 1473 1473 1473 1473 1473 1473 1473 1473 1473 1473 1473 1473
1456 1457 1457 1458 1458 1458 1459 1459 1460 1460 1460 1460 1460 1461 1461 1461 1462 1462 1463 1463 1464 1465 1466 1466 1467 1467 1467 1467 1467 1467 1468 1468 1468 1469 1469 1469 1469 1469 1469 1469 1469 1469 1469